Theta_e
330 330 330 330 330 330 330 332 334 335 336 337 337 336 335 335 336 336 335 335 335 334 335 335 335 335 334 334 334 335 334 334 335 335 333 332 331 335 340 343 345 345 342 341 340 339 339 338 338 338 338 337 336 336 336 336 335 338 338 337 337 335 334 333 333 333 333 333 333 333 333 333 333 333 332 332 332 332 332 332 332 332 332 332 332
329 329 328 328 328 328 329 329 331 332 334 336 337 337 336 336 335 335 335 334 333 334 336 335 335 335 334 334 335 334 335 334 335 336 334 332 332 333 338 342 344 340 338 340 340 338 338 339 340 339 338 338 338 338 337 337 337 338 340 340 339 338 336 335 335 334 334 334 334 334 334 334 334 333 333 333 333 333 333 333 333 333 333 333 333
330 329 328 327 327 327 328 329 329 330 332 334 336 337 335 335 335 334 333 332 332 333 334 334 334 334 335 335 334 334 335 335 337 337 335 334 332 333 334 339 341 340 339 339 339 339 340 339 340 340 340 340 339 339 338 338 338 340 340 341 339 338 337 336 336 335 335 335 335 335 335 335 335 334 334 334 334 334 334 334 334 334 334 334 334
329 330 328 326 326 326 327 328 328 330 332 332 333 336 336 335 335 335 334 333 333 334 335 335 333 333 332 332 333 333 335 336 336 338 336 336 335 334 335 337 340 340 339 339 339 340 341 341 340 340 340 340 340 340 340 340 340 341 341 342 340 340 339 338 337 337 337 336 336 336 336 336 336 335 335 335 335 335 335 335 335 335 335 335 335
326 327 329 324 325 326 327 328 328 330 331 334 335 333 332 332 332 334 332 332 332 332 334 333 332 332 332 332 333 333 334 335 336 337 337 336 336 335 335 337 339 339 340 340 339 337 339 341 341 342 342 340 341 341 341 341 340 340 341 341 341 342 341 339 339 338 338 337 337 337 337 337 336 336 336 336 336 336 336 336 336 335 335 335 335
324 324 324 324 325 325 326 327 328 330 329 331 330 331 331 330 332 331 336 333 330 330 331 331 331 332 331 332 332 332 334 335 335 336 337 337 336 335 336 336 336 338 340 340 340 339 339 340 340 340 340 340 341 342 341 341 341 340 341 340 340 339 339 341 340 340 339 338 338 338 338 338 338 337 337 337 337 337 336 336 336 335 335 335 335
326 324 323 323 324 325 326 327 329 329 328 329 328 328 328 329 332 331 328 329 329 332 331 329 329 329 330 332 330 332 333 334 334 335 336 336 335 336 336 336 336 336 337 337 339 341 341 342 342 341 340 338 338 339 339 340 341 341 341 341 341 340 340 340 339 339 339 339 339 338 336 336 336 336 337 335 335 335 336 336 336 336 335 335 335
326 323 324 322 323 324 325 327 329 328 327 327 329 327 327 326 329 328 326 326 328 327 328 328 328 329 330 331 330 333 332 332 333 334 335 336 336 337 336 336 336 335 337 336 336 337 339 341 342 342 341 340 341 341 342 342 341 341 342 341 341 341 341 341 341 339 338 338 337 337 336 335 335 336 336 337 336 336 336 335 334 335 335 335 334
326 325 324 323 323 324 325 325 328 326 326 326 326 328 325 326 326 330 325 325 325 325 326 326 327 329 328 328 328 329 328 330 332 333 335 335 336 335 335 335 336 339 340 337 336 336 336 338 338 337 337 337 337 338 339 340 340 340 340 341 341 341 341 341 341 341 339 337 336 335 335 336 335 336 337 337 338 336 335 335 335 335 334 334 333
326 326 326 327 324 324 324 325 327 324 324 325 325 326 324 325 326 326 326 325 324 324 325 325 326 326 326 326 327 328 329 331 334 335 333 333 334 333 333 335 336 338 336 335 335 334 334 334 334 335 336 336 336 337 338 338 338 338 339 339 339 340 341 342 341 341 339 337 336 335 335 335 335 336 336 338 337 336 334 335 334 334 336 336 336
326 327 328 325 324 324 324 325 326 323 323 323 323 325 326 322 325 324 324 326 325 324 325 325 325 325 324 324 327 328 328 330 329 329 330 331 333 333 333 333 333 333 333 332 332 332 332 332 332 333 335 336 336 336 338 338 339 339 340 339 339 340 340 341 342 341 339 337 336 335 335 335 335 336 336 336 337 337 337 335 335 336 336 336 336
327 327 326 327 324 324 324 325 326 324 323 323 323 323 323 322 323 327 320 324 324 324 324 323 321 322 324 324 325 327 328 328 328 329 329 329 329 330 329 330 330 331 331 332 332 332 332 333 334 333 334 334 335 336 337 338 339 339 340 340 340 340 340 340 341 340 338 337 337 336 336 336 336 336 335 336 336 336 336 336 336 335 336 336 335
329 327 325 327 325 324 324 324 325 326 324 323 323 325 325 323 322 325 323 320 322 324 324 321 320 320 321 322 323 325 328 327 327 328 328 329 330 329 329 329 329 330 331 332 332 331 332 332 332 332 332 332 332 333 335 336 337 339 340 340 341 341 341 340 339 338 337 336 336 336 335 336 336 335 336 336 335 336 335 335 335 335 335 334 334
329 326 325 324 324 324 323 323 324 325 325 324 325 327 323 323 321 321 321 321 321 323 324 321 318 317 317 318 321 323 325 325 326 327 328 329 329 329 329 329 329 330 331 330 330 330 330 330 330 329 330 330 330 331 332 335 336 337 339 339 340 341 341 339 338 337 336 336 335 334 334 335 335 335 336 335 335 335 335 334 334 334 334 333 333
325 328 324 323 323 323 323 323 323 325 322 322 322 323 322 322 321 321 320 319 322 325 324 322 319 315 317 317 313 314 320 322 324 326 327 328 330 329 329 329 327 328 329 328 327 327 326 326 325 326 326 327 328 329 331 334 336 336 337 337 337 338 340 339 338 338 336 335 334 335 335 336 336 335 335 335 334 334 333 333 333 332 331 330 330
324 326 323 323 322 322 322 323 323 324 322 321 321 322 321 322 321 322 320 319 318 319 326 322 318 319 317 315 312 312 312 316 318 323 327 328 328 328 327 326 326 326 326 324 323 323 323 322 322 322 323 324 325 327 329 333 335 335 336 337 337 337 337 338 337 337 337 336 336 335 335 335 334 334 334 333 332 332 331 331 330 330 329 329 329
323 324 327 322 322 321 322 322 323 323 323 321 321 320 321 321 321 321 320 319 318 316 319 325 324 324 319 313 312 311 312 317 318 320 326 325 326 325 326 324 323 323 322 321 321 321 320 319 320 320 321 321 323 325 327 330 333 335 335 336 336 336 336 336 336 336 336 335 335 334 334 334 334 332 331 331 330 330 329 329 328 328 327 327 327
322 323 324 326 321 321 321 321 322 323 324 320 320 321 321 321 322 320 321 321 320 317 316 321 321 324 320 319 319 315 315 317 316 313 323 326 326 326 324 323 324 321 321 320 318 318 319 317 317 318 319 320 321 323 325 329 333 334 334 333 334 334 334 335 335 335 335 335 334 333 332 333 332 331 330 329 328 328 327 326 326 325 326 326 327
321 320 321 326 322 321 320 321 322 323 325 320 320 319 320 321 323 321 321 321 316 316 315 317 319 321 322 321 323 320 320 318 315 317 315 320 324 324 324 324 322 320 319 318 318 317 316 316 315 316 317 317 319 321 323 325 330 332 333 333 333 333 332 333 333 334 333 333 333 333 332 331 331 330 329 327 326 325 325 324 324 324 324 325 326
319 319 320 323 326 321 320 321 321 323 325 319 319 319 320 321 322 320 321 321 319 318 318 317 318 318 321 320 320 321 319 318 322 319 317 315 316 323 324 322 321 320 319 317 317 316 315 315 314 314 315 315 316 318 320 323 325 328 331 331 332 331 331 331 330 330 330 330 330 330 329 329 329 328 327 326 325 324 323 323 323 323 323 324 325
317 317 318 320 325 323 320 320 321 323 325 319 319 318 318 318 318 319 318 318 320 320 318 317 316 318 319 318 316 318 318 318 318 318 319 316 316 317 316 319 320 320 319 317 316 316 315 315 314 312 313 312 312 314 317 319 321 323 328 329 329 329 329 328 328 327 327 327 326 326 326 326 325 325 325 324 323 322 322 322 322 322 322 322 323
316 316 317 317 319 323 320 320 319 323 324 318 318 318 317 317 316 318 317 317 317 318 318 316 317 317 316 316 315 315 316 317 317 316 318 319 316 315 317 315 313 317 319 317 315 315 315 315 313 312 311 311 311 311 313 316 318 321 323 325 326 326 326 326 325 325 324 324 324 323 323 323 323 323 323 323 322 321 320 320 320 320 320 321 322
314 315 315 316 320 323 319 318 322 322 320 318 317 316 317 316 316 316 316 315 316 315 316 316 317 317 317 317 317 317 316 316 315 313 313 315 317 316 316 317 315 314 317 317 316 316 314 314 312 311 311 310 310 310 311 314 316 318 320 322 322 322 323 322 322 322 322 322 322 321 321 322 322 322 322 322 321 321 319 319 319 319 319 320 321
313 313 314 314 320 317 318 318 321 318 318 316 317 316 316 316 315 316 315 315 315 316 314 314 315 316 315 315 316 316 316 317 317 316 316 316 318 315 314 315 315 315 317 317 317 315 314 313 312 311 310 309 308 309 309 311 312 315 315 317 319 320 321 321 320 320 321 321 321 321 321 321 321 321 321 321 320 319 318 318 318 318 318 319 321
312 313 314 313 318 316 318 318 318 318 318 317 316 316 315 315 315 313 313 313 313 313 313 312 312 313 314 314 315 315 315 315 316 316 317 318 319 314 316 318 313 314 316 317 313 314 313 311 310 309 308 307 306 307 307 308 310 311 311 313 315 317 319 320 320 320 319 320 320 320 321 320 320 320 319 318 318 316 316 316 316 317 318 319 320
312 312 313 316 316 316 316 315 316 316 319 318 316 316 316 315 313 313 312 312 312 312 312 313 312 312 313 314 313 312 313 314 315 317 317 318 317 315 314 315 315 312 314 314 315 311 310 311 311 309 308 306 305 305 306 307 308 309 309 308 310 312 314 317 319 319 319 319 318 319 320 319 319 318 317 316 315 315 316 316 316 317 318 319 319
312 313 316 315 316 316 320 316 316 315 314 314 314 313 312 313 314 312 313 312 310 312 311 311 311 310 311 311 313 311 311 312 314 317 319 319 318 317 315 310 310 311 309 311 312 309 308 309 310 308 307 307 306 305 305 305 307 308 306 305 306 309 310 311 314 316 317 317 317 317 317 317 317 316 315 314 314 315 316 315 316 317 317 318 318
309 315 312 315 315 315 316 315 315 314 314 313 312 312 312 312 310 310 310 312 310 310 309 310 309 309 309 310 311 309 310 311 312 313 317 319 319 319 317 314 310 306 307 307 308 308 311 306 307 308 306 305 305 306 306 305 305 306 306 304 305 306 307 307 308 310 313 314 316 316 316 315 315 314 314 314 314 314 314 314 314 314 315 315 315
310 315 313 313 315 315 314 313 313 312 311 311 311 311 310 310 309 309 309 309 310 309 309 308 309 309 308 308 308 308 308 309 309 311 314 319 320 319 318 315 313 308 305 304 304 306 308 307 305 306 307 306 305 306 305 305 305 304 304 304 304 305 305 306 306 306 308 309 311 314 315 315 315 314 314 314 314 314 313 313 312 312 312 312 312
315 316 314 314 313 317 312 312 312 311 310 310 310 309 310 309 308 307 307 307 307 306 307 308 307 309 308 307 307 306 307 307 306 308 310 315 320 318 318 316 314 310 308 304 300 302 306 307 309 305 307 306 305 305 305 304 305 303 303 303 304 305 305 305 305 305 305 305 306 308 311 313 314 314 314 314 314 313 312 312 311 310 309 308 307
314 309 312 312 312 311 311 312 312 310 309 308 309 308 307 307 308 306 305 305 305 304 304 306 306 306 306 306 306 305 306 305 306 306 307 310 314 318 318 317 315 312 309 306 302 300 303 305 306 308 306 305 305 304 304 304 304 302 302 303 303 304 304 305 305 304 304 303 303 304 306 309 311 312 312 312 311 311 311 310 309 308 306 304 304
308 309 311 311 312 310 310 310 309 308 308 307 307 306 305 304 304 303 303 303 303 303 303 303 304 304 304 304 304 304 304 304 305 305 306 307 310 315 316 314 311 311 310 306 303 299 300 304 305 306 306 305 305 303 302 302 304 303 302 302 302 302 302 303 304 304 303 302 302 302 303 305 307 308 309 309 309 308 308 307 306 304 303 303 302
308 308 310 309 310 310 309 310 307 307 306 306 306 305 304 302 302 302 301 301 301 300 302 301 301 302 303 302 302 303 303 303 303 304 305 305 309 311 312 311 309 308 306 304 301 301 302 304 305 305 305 306 304 304 302 302 302 302 303 303 303 302 302 302 303 304 303 303 302 301 301 301 303 304 306 307 305 304 304 302 301 302 303 302 301
308 308 309 311 308 308 307 306 305 305 305 305 304 303 302 300 300 300 299 299 299 298 299 298 299 300 301 301 300 301 302 301 302 302 303 304 306 307 307 307 305 305 306 305 304 304 300 302 302 303 303 305 304 304 303 302 302 303 302 303 303 303 302 302 302 303 304 303 302 301 301 301 301 301 303 304 302 300 300 300 300 300 300 300 299
310 308 307 307 307 306 305 305 305 305 304 303 301 300 299 298 296 296 296 296 297 297 297 296 297 298 300 300 299 300 301 301 301 301 302 303 303 303 303 304 304 303 304 306 304 301 301 298 299 301 300 301 302 302 302 303 302 302 302 302 302 303 304 304 303 303 303 303 302 301 301 301 301 300 301 301 301 301 300 300 299 299 299 298 298
306 309 306 307 306 306 305 305 304 304 303 301 299 298 297 296 295 294 293 294 294 294 295 296 296 297 297 298 298 298 300 300 299 300 300 301 302 301 301 301 302 301 303 303 305 302 300 298 297 298 299 298 298 299 300 300 300 300 301 301 303 303 303 303 304 304 304 303 303 301 301 300 301 300 300 301 301 301 301 300 300 299 299 299 298
305 306 309 306 305 305 305 304 304 303 302 300 298 296 295 294 293 293 292 292 292 293 293 295 298 295 296 296 296 297 298 299 299 299 299 299 299 300 299 299 299 300 300 301 302 302 300 298 296 297 298 298 298 299 299 299 298 297 297 297 298 299 302 302 303 304 303 303 303 302 301 300 300 300 300 300 301 301 301 300 300 300 299 299 298
304 304 306 306 306 304 303 303 303 302 300 298 296 295 294 293 292 292 292 292 292 292 293 294 294 296 296 296 295 296 297 298 298 298 298 298 298 298 298 298 297 298 298 298 299 299 298 297 297 296 297 297 298 298 298 297 297 296 296 297 298 298 299 302 302 302 303 303 303 303 301 300 300 300 300 300 300 300 301 301 301 300 300 299 298
304 304 304 305 306 303 303 303 302 301 299 297 295 293 292 292 292 292 292 292 293 294 294 294 295 296 297 297 297 296 296 296 296 297 298 298 298 298 298 298 297 298 297 297 297 297 297 296 295 295 296 296 297 297 298 299 298 296 297 297 297 297 297 298 300 301 301 302 301 301 301 300 300 299 299 300 300 301 301 301 302 301 300 299 298
304 303 303 304 304 303 302 302 302 302 298 295 293 293 293 293 293 292 293 293 293 294 295 295 296 297 298 298 299 300 300 298 297 296 297 297 298 297 297 296 297 296 295 296 296 296 296 295 294 294 293 296 297 297 298 299 297 297 298 297 296 296 297 296 296 298 300 300 298 298 299 298 298 298 299 300 301 301 301 301 301 300 299 297 297
305 303 303 303 302 301 301 302 302 301 298 296 294 293 292 292 291 292 292 293 294 295 295 295 295 295 297 300 301 303 304 303 303 303 302 300 298 297 296 295 296 295 294 294 294 294 294 294 293 293 295 295 294 297 297 297 297 296 297 298 295 296 297 297 297 297 297 298 298 297 297 298 297 296 297 298 300 301 300 300 299 298 297 296 295
304 303 302 302 302 301 301 300 300 300 299 297 300 298 297 293 292 292 293 294 294 295 295 293 292 292 292 294 301 303 303 302 300 299 298 299 299 297 295 295 294 294 293 293 293 294 295 294 294 295 295 294 294 294 294 294 295 296 294 295 294 294 296 297 297 296 297 299 297 295 296 297 296 295 296 296 298 300 300 299 297 296 295 295 294
303 304 302 301 300 300 301 300 300 300 300 300 301 293 294 295 293 293 294 294 294 294 293 292 292 294 293 294 295 298 298 299 299 297 296 296 296 297 298 297 296 294 293 292 291 293 295 292 291 293 294 293 293 293 294 294 295 296 295 294 294 295 296 295 292 296 297 298 297 295 294 296 296 294 294 295 297 299 299 297 297 296 295 295 294
303 303 301 301 300 300 299 299 300 300 300 304 294 293 293 294 296 295 294 295 295 294 293 292 294 295 295 295 295 296 299 297 295 297 298 297 295 295 294 293 293 294 294 295 294 291 292 292 292 292 293 294 293 293 294 294 293 293 292 293 294 294 295 295 294 294 295 297 296 294 293 295 296 294 293 294 296 298 297 297 296 296 295 294 294
303 301 301 300 299 299 299 298 298 300 300 300 293 293 293 293 294 296 295 295 296 294 294 295 295 296 296 295 293 290 292 295 291 288 291 294 295 295 295 296 295 293 290 291 293 294 293 293 293 291 292 292 293 295 296 296 294 293 293 293 292 293 294 295 293 293 297 296 296 293 291 293 294 293 292 293 295 297 297 297 296 296 295 295 294
302 301 300 300 299 298 298 299 299 298 298 300 293 293 293 292 292 294 294 295 296 295 296 296 297 296 294 292 290 289 288 289 288 287 287 288 289 290 290 290 291 293 294 293 293 293 294 294 294 293 292 294 295 295 297 295 295 294 295 293 293 293 294 294 293 294 294 296 297 293 291 292 293 293 291 293 295 295 296 297 297 296 296 295 295
302 301 300 299 298 299 299 298 298 297 297 298 293 293 292 292 292 294 295 296 296 296 296 296 296 296 293 290 289 288 289 290 291 289 288 289 290 290 291 291 291 292 293 293 293 294 294 293 294 294 293 294 294 294 295 296 298 296 296 295 295 295 294 294 295 296 296 296 295 296 289 291 294 292 291 292 294 294 295 294 296 296 296 296 295
303 302 300 300 300 298 298 297 298 296 296 294 293 292 292 292 293 297 296 296 296 296 296 296 296 295 293 292 290 289 290 292 293 291 291 291 291 291 290 290 291 292 294 295 293 294 295 293 294 294 294 294 295 296 297 295 297 297 296 295 294 294 295 295 293 294 295 295 295 295 292 290 293 291 291 293 294 293 294 295 294 295 295 295 295
301 300 300 300 300 298 297 297 297 296 295 293 292 293 292 291 294 296 296 297 296 296 296 295 296 295 294 292 291 290 291 293 292 290 291 292 290 291 290 290 291 291 292 293 293 292 292 292 292 292 293 293 292 292 292 292 296 295 295 294 293 294 295 293 292 294 293 295 296 296 293 290 293 293 291 292 292 292 292 293 295 294 294 294 295
301 300 300 299 299 298 297 296 297 296 295 295 292 293 292 292 297 296 297 297 296 297 295 295 295 295 295 297 294 291 292 294 291 290 291 294 291 290 291 291 291 291 291 292 293 294 293 293 293 292 292 293 293 292 293 293 293 295 297 295 294 294 294 294 292 292 293 295 296 296 295 291 293 294 291 291 292 292 292 293 293 294 293 293 294
303 301 302 299 298 297 297 297 302 299 296 296 293 293 293 292 297 296 297 296 296 295 295 294 294 294 294 299 298 294 293 296 290 290 290 294 291 291 291 291 292 291 293 292 293 295 295 295 295 297 294 295 297 298 298 295 296 297 296 296 294 296 294 294 293 292 291 292 295 296 293 291 293 292 291 291 288 290 292 292 292 293 293 294 293
Wind_Speed
4 4 3 5 4 4 4 4 4 3 2 2 3 3 3 2 2 3 3 3 3 4 2 3 3 2 3 3 3 3 3 2 3 4 4 4 5 5 9 11 10 9 8 7 9 8 9 9 10 10 10 10 9 9 9 10 9 8 11 11 10 10 12 11 11 10 9 10 10 11 11 11 11 11 11 10 10 10 11 11 12 12 12 12 12
3 4 5 4 4 4 5 5 4 4 2 2 2 3 2 3 3 3 3 3 3 3 3 3 3 2 3 3 3 3 3 4 4 3 4 3 4 4 8 9 6 1 4 5 8 9 10 9 9 10 10 11 11 10 10 10 10 11 7 11 10 10 10 10 11 11 11 11 11 12 12 11 11 11 11 11 11 11 12 13 13 13 13 13 13
4 4 4 4 4 4 5 4 5 5 4 2 2 2 2 2 3 3 3 3 3 2 2 3 3 3 2 3 4 2 3 3 3 3 2 2 2 2 3 4 2 6 8 6 8 10 10 11 11 11 11 11 12 12 12 11 12 11 9 5 8 9 9 10 11 12 12 11 11 11 11 11 12 12 12 12 12 12 13 13 14 13 13 14 14
3 3 4 4 4 4 4 4 5 5 4 3 2 2 2 2 2 2 3 3 3 3 2 3 3 3 2 3 3 3 2 2 2 2 2 2 2 1 2 1 1 4 6 9 10 11 12 11 11 11 11 12 12 12 12 13 13 12 10 8 7 9 10 11 12 12 12 11 10 11 11 12 12 13 12 13 13 13 13 13 13 13 14 14 14
4 4 4 4 4 5 5 4 4 4 4 4 2 1 1 2 2 1 2 2 3 3 1 2 3 3 2 3 2 3 2 2 2 2 1 1 1 2 3 2 2 3 8 9 10 11 12 12 11 10 11 11 11 12 13 13 13 13 13 11 10 8 9 11 12 12 11 10 11 11 12 12 13 13 13 13 14 13 13 13 13 12 13 14 14
2 3 3 4 4 4 5 5 5 5 4 4 3 3 2 3 3 3 4 3 4 4 3 3 3 3 3 3 2 2 2 2 2 3 3 3 3 3 3 3 4 4 4 7 10 12 14 13 13 12 12 11 11 12 13 13 14 14 13 14 12 12 11 11 12 9 9 10 10 12 11 11 12 12 12 12 13 13 13 13 12 12 13 15 15
2 2 4 4 4 4 5 5 4 4 4 4 4 4 4 4 3 4 4 4 3 3 3 4 4 5 5 4 4 4 2 1 1 3 2 3 3 3 3 4 3 4 3 4 6 10 12 13 12 12 12 12 12 13 13 14 15 15 16 16 15 14 10 11 8 9 9 9 10 8 8 11 13 13 12 13 13 13 13 13 13 13 13 14 14
4 3 4 4 4 4 4 5 5 4 4 4 4 5 4 4 3 3 4 4 3 4 3 4 4 5 5 5 5 5 4 2 0 2 3 3 3 4 4 2 3 3 4 3 3 3 8 9 9 9 10 11 11 12 13 14 14 14 15 15 14 15 14 12 10 10 8 7 4 6 6 11 12 13 14 14 13 14 13 11 12 12 14 13 13
5 4 4 4 4 4 4 4 4 5 4 4 4 3 4 3 4 3 3 4 3 3 4 4 4 5 5 6 6 5 5 4 2 2 3 3 3 2 2 3 2 4 3 2 0 1 4 9 9 11 11 10 10 9 9 10 10 11 11 11 11 11 11 11 11 9 8 8 7 8 9 10 11 11 11 11 12 11 14 11 11 12 13 14 13
5 4 4 3 3 4 4 5 5 4 5 4 4 3 3 3 3 3 3 4 4 4 4 4 4 4 6 7 7 6 7 7 5 3 2 1 1 1 2 1 1 2 4 4 4 5 5 8 11 10 10 10 10 10 10 9 9 9 10 10 11 12 11 9 7 7 8 7 8 7 8 8 8 10 10 10 11 10 11 12 11 14 11 12 11
5 5 5 4 4 5 5 5 5 5 5 5 6 6 5 5 4 3 3 3 4 3 2 2 5 5 6 6 6 7 6 7 7 7 6 5 4 4 4 5 6 6 7 7 7 7 7 7 6 5 7 13 12 12 11 10 10 8 8 8 8 9 9 8 5 6 5 6 6 6 7 9 11 11 11 12 11 11 12 10 12 12 11 11 10
5 5 5 5 5 5 4 5 5 5 6 6 6 6 6 6 6 5 4 3 3 3 3 4 5 6 6 6 7 6 9 8 9 9 8 8 6 6 6 6 8 8 8 7 7 8 8 8 7 7 6 9 13 12 12 11 11 11 11 10 9 8 7 5 3 2 5 6 6 7 6 7 8 9 9 10 10 10 9 10 10 8 9 10 10
5 5 6 4 5 5 5 5 5 4 4 4 4 4 4 3 3 2 4 4 4 4 4 2 6 4 4 6 6 7 8 8 10 10 9 7 7 7 6 7 8 9 8 7 8 8 7 7 6 6 6 5 7 10 11 11 11 12 12 13 12 11 9 8 9 7 5 3 1 3 4 5 5 6 7 8 8 7 9 9 10 11 10 10 9
6 6 6 7 6 6 6 6 6 5 3 3 4 4 6 6 5 3 3 3 1 3 4 1 3 3 3 2 4 4 4 6 10 10 9 8 8 7 7 7 8 8 7 7 7 7 7 6 5 6 5 6 7 7 8 9 10 12 12 13 13 12 12 12 9 7 5 4 5 4 4 4 6 6 6 9 12 12 12 11 10 10 10 10 10
5 5 5 6 6 6 6 6 6 6 6 7 6 7 6 6 6 4 5 2 1 2 4 3 1 2 1 3 1 2 5 5 6 10 9 8 7 8 7 8 9 8 7 7 6 7 6 6 6 6 6 5 7 8 8 8 11 13 13 13 12 12 11 11 10 8 7 5 4 6 7 7 11 14 16 16 14 14 13 12 11 11 12 12 12
4 4 4 5 5 5 5 5 5 5 5 5 6 6 6 7 6 5 2 3 4 2 3 3 2 3 1 0 2 3 2 4 4 5 6 9 8 8 7 8 8 8 7 7 7 6 6 6 7 6 7 6 6 6 7 7 12 12 14 15 15 14 15 14 14 15 15 12 8 9 13 17 18 18 18 16 15 15 14 13 13 13 13 14 14
4 5 5 5 5 5 5 4 5 5 5 5 5 4 4 3 4 4 4 1 4 3 2 3 5 3 3 3 1 2 2 2 2 5 6 6 8 9 8 8 9 7 7 7 7 7 7 8 7 7 8 7 7 6 7 7 9 9 11 17 20 19 19 19 19 20 20 21 19 16 16 20 20 19 18 17 16 16 14 14 14 14 14 13 12
5 5 5 5 5 5 4 5 5 4 5 4 4 5 6 5 5 2 3 2 1 3 3 3 3 4 2 1 2 2 5 3 1 2 3 6 5 8 8 8 6 7 7 7 8 8 7 7 8 9 8 7 6 6 7 7 9 8 9 13 21 22 22 22 20 20 19 18 17 17 18 21 20 19 17 16 16 15 15 15 14 14 13 13 14
5 5 5 4 5 5 5 4 4 4 4 5 5 5 3 4 4 3 3 3 2 3 2 3 4 3 3 3 2 2 2 5 2 4 3 3 4 4 7 7 8 9 9 9 8 8 7 7 8 9 9 6 6 6 6 6 10 11 19 21 20 21 22 22 22 21 19 19 19 19 20 19 19 18 17 17 15 14 14 15 14 14 14 14 15
5 5 5 5 4 5 5 5 5 5 5 5 5 5 4 4 3 3 3 4 4 3 2 2 3 3 3 4 4 3 2 2 6 5 5 5 4 6 6 7 8 8 8 8 8 8 8 7 8 8 6 8 7 7 7 8 8 8 10 21 21 21 22 22 22 22 21 20 20 19 19 19 19 18 17 15 15 15 15 15 15 14 15 15 15
4 4 4 4 4 4 4 5 5 5 4 5 5 5 6 6 7 6 6 5 4 3 2 3 3 2 3 2 3 5 5 7 5 5 4 6 5 5 6 6 8 6 6 7 7 7 7 7 8 8 7 7 7 7 7 7 7 7 10 21 21 21 21 22 22 21 20 20 19 19 18 18 17 16 16 16 16 16 16 16 16 16 16 16 15
4 4 4 4 4 3 4 4 4 4 4 4 5 5 5 5 4 4 5 6 4 4 3 2 3 2 2 0 4 3 4 3 3 4 6 3 4 6 6 6 8 5 5 5 7 7 7 7 7 7 7 7 7 7 7 8 7 7 11 20 20 21 21 21 21 19 19 18 17 17 17 16 16 16 16 16 16 16 16 16 16 16 16 16 16
4 4 4 4 4 3 3 3 4 4 4 5 4 3 3 4 3 4 6 6 5 4 4 3 3 4 4 4 3 3 3 3 4 3 4 2 5 3 5 7 8 8 5 5 7 8 8 7 7 7 7 7 7 7 7 8 10 13 21 21 21 21 21 21 20 20 19 19 19 18 18 17 17 17 17 17 18 17 17 16 16 16 16 16 16
3 4 4 4 4 4 3 4 5 4 4 3 4 4 3 4 5 5 4 4 5 5 5 6 6 3 5 3 3 3 3 2 1 3 4 4 5 3 4 6 6 6 4 6 8 8 9 9 8 7 7 6 7 7 7 7 10 19 13 21 21 22 21 21 20 20 20 20 20 20 19 19 19 19 19 19 18 18 17 17 18 18 17 16 16
4 4 3 5 3 4 4 5 4 3 3 3 4 4 4 4 5 6 6 7 5 5 5 5 4 4 3 2 2 3 3 1 1 3 4 1 4 5 2 1 5 4 3 2 5 8 9 8 8 7 7 7 7 7 6 7 9 14 14 15 23 21 22 22 21 21 21 21 21 21 21 20 20 20 20 19 19 19 19 19 18 17 16 16 17
2 3 4 3 2 2 3 3 2 2 2 4 4 4 5 5 5 6 6 4 4 5 5 4 4 4 3 4 4 3 3 3 2 5 7 7 6 5 4 5 5 6 4 3 2 5 7 7 7 7 7 7 7 6 6 7 8 15 17 12 17 21 22 22 22 22 22 22 22 22 22 21 21 20 20 21 21 21 20 18 18 18 18 19 19
1 3 4 2 3 5 4 4 4 4 4 4 4 4 4 5 5 4 5 4 4 5 5 6 6 6 5 4 3 4 4 4 3 3 5 4 6 6 6 7 4 3 4 5 6 8 6 6 7 7 7 6 6 7 7 7 11 17 14 10 10 22 21 23 22 23 22 22 22 22 22 21 21 22 23 23 23 22 22 22 21 21 20 20 20
2 2 4 2 5 4 4 5 4 4 5 4 5 5 5 5 5 5 6 4 5 7 5 5 6 6 5 4 4 5 4 4 3 2 2 4 5 4 6 6 7 4 4 5 5 5 3 5 6 8 7 6 6 6 9 10 9 14 14 9 8 11 20 20 22 22 23 23 23 22 21 21 22 24 23 22 22 22 23 23 23 22 22 22 22
2 1 2 3 4 4 4 4 4 4 5 4 5 5 5 5 5 5 6 5 5 5 4 5 4 4 4 6 4 4 5 4 4 3 2 4 3 2 3 1 4 7 4 3 3 3 2 4 3 5 6 6 6 5 7 7 10 11 8 8 9 9 16 17 19 22 22 22 22 22 22 21 21 22 22 22 22 22 23 23 24 24 23 23 23
1 2 2 2 4 4 4 4 4 5 5 4 5 5 5 5 5 5 4 3 5 4 5 4 5 4 4 4 5 4 4 4 4 4 3 1 5 3 3 1 2 4 4 5 3 2 2 4 3 3 3 5 4 6 6 7 12 10 8 8 8 9 16 17 16 18 19 18 20 21 22 21 20 20 20 21 21 21 22 22 23 24 23 23 23
1 2 2 3 4 4 4 4 4 4 5 5 4 5 5 5 4 4 5 4 5 6 5 4 4 4 5 6 4 4 4 4 4 4 4 3 3 3 3 2 3 2 5 6 5 2 2 3 4 4 3 4 5 5 6 6 8 9 7 7 8 12 12 14 16 15 15 15 17 19 20 20 20 19 19 19 20 21 21 22 23 23 23 23 23
2 1 3 3 4 5 4 4 5 4 5 5 4 5 5 5 4 5 5 4 6 5 5 4 4 4 5 6 5 4 4 3 4 4 4 3 1 3 3 3 3 4 4 4 6 4 3 2 5 4 4 4 4 6 6 5 6 10 6 6 7 9 7 7 13 14 14 16 16 16 17 18 19 19 19 19 19 20 21 22 22 22 22 23 23
1 1 4 3 4 5 5 5 5 4 5 5 4 4 5 5 5 5 5 5 5 4 4 6 5 5 5 5 5 5 4 5 4 3 4 4 2 3 3 4 5 4 5 6 7 7 4 3 3 4 3 2 4 4 6 5 5 5 6 6 6 6 5 5 6 12 15 15 16 16 16 16 17 18 19 19 18 18 20 20 20 22 23 23 23
1 2 4 4 4 5 5 5 5 5 5 5 4 4 5 5 5 4 4 5 5 5 5 6 5 4 4 5 6 5 5 4 4 5 4 4 3 4 3 4 5 5 3 7 4 8 7 2 4 2 2 2 4 3 4 5 4 4 6 5 5 5 5 4 6 7 14 14 15 16 16 16 16 16 17 18 15 14 16 17 18 21 22 23 23
2 2 4 5 5 5 5 5 5 5 5 5 4 5 5 5 5 5 4 5 5 5 6 5 5 3 4 5 5 5 4 5 6 5 4 5 4 5 5 4 6 5 4 5 9 6 9 3 1 2 2 3 2 3 3 4 4 3 5 5 4 4 4 4 5 4 12 14 15 15 16 16 16 16 16 16 15 15 15 16 17 18 20 21 22
4 2 4 6 5 5 6 5 5 5 5 5 5 5 5 4 5 5 4 5 4 4 4 4 4 4 4 4 5 5 4 6 6 5 5 5 5 4 6 5 6 6 5 5 6 9 4 6 2 1 1 2 3 4 3 3 4 4 3 2 3 4 4 4 4 5 8 13 14 14 15 16 16 16 16 15 15 14 14 15 16 17 18 19 20
4 4 3 5 5 5 5 5 5 5 5 5 5 5 5 4 5 5 5 5 5 4 4 4 4 4 4 5 4 4 4 6 5 5 4 6 4 5 6 4 5 5 5 5 5 6 8 7 4 2 2 3 2 2 1 4 4 4 3 4 3 3 4 3 3 5 7 10 10 12 14 15 16 16 16 16 15 14 14 14 15 16 17 19 20
4 4 5 3 4 5 5 5 5 5 5 5 5 5 5 4 5 5 5 5 5 5 4 4 4 4 5 5 4 4 5 5 4 4 4 6 5 6 6 5 5 6 7 6 6 7 8 5 4 4 2 3 3 3 2 2 4 3 4 3 4 4 4 4 4 4 4 4 5 7 9 11 14 16 16 16 15 15 15 14 15 16 16 17 19
5 4 4 5 4 5 5 5 5 5 6 5 6 5 5 5 6 6 6 6 5 5 5 5 5 5 5 4 5 5 5 4 4 4 4 5 5 6 5 6 5 7 7 6 6 7 6 7 4 3 4 3 1 4 3 3 4 2 2 3 3 3 3 4 4 4 4 4 7 11 11 11 14 12 14 16 16 15 15 16 16 17 18 18 18
5 6 6 6 5 5 5 5 5 5 6 6 5 6 5 5 6 6 5 5 5 5 6 6 5 5 5 5 5 4 4 4 4 4 3 5 5 7 4 5 6 8 7 5 6 5 6 5 3 3 1 2 3 2 1 2 4 2 2 1 3 2 3 4 4 3 4 5 6 7 9 10 10 12 12 12 16 15 15 12 18 20 20 20 19
4 5 6 6 7 6 4 5 6 5 5 5 5 6 6 6 6 6 5 5 5 6 6 6 6 6 6 5 5 5 7 8 9 6 5 4 2 7 4 4 6 7 7 5 5 5 4 5 4 2 3 3 2 3 3 2 2 3 1 1 3 2 2 4 4 5 3 4 5 7 8 7 7 8 8 9 10 13 13 13 12 19 22 20 20
5 5 6 5 6 7 7 5 5 5 4 4 4 7 6 7 7 6 5 5 5 5 6 6 6 6 6 6 6 12 11 12 11 10 11 10 9 6 4 4 5 7 6 6 5 4 5 5 4 5 5 3 2 2 2 1 0 0 3 4 5 2 3 5 4 4 4 3 6 8 7 7 5 8 8 9 8 9 8 9 12 14 18 20 21
7 6 6 7 6 6 7 7 6 5 4 4 7 8 9 10 8 6 6 5 5 5 5 6 6 6 5 6 5 7 8 9 10 12 11 12 11 11 10 8 5 5 8 7 4 4 4 4 2 3 4 5 2 1 2 2 0 2 3 2 4 3 3 6 5 1 4 3 3 6 7 7 6 8 8 8 8 8 9 11 16 18 19 20 21
6 6 7 7 7 6 5 6 6 5 5 6 10 9 10 10 8 7 6 6 5 5 5 6 5 5 5 5 5 4 5 6 6 7 10 13 12 12 12 11 10 9 5 4 4 4 5 6 4 2 4 4 3 2 2 2 3 3 2 2 2 3 4 4 3 4 2 3 4 7 6 6 5 7 8 7 7 8 11 14 17 18 18 19 20
6 7 7 7 7 6 6 7 6 5 5 7 11 10 10 10 11 8 6 6 6 5 5 5 5 5 5 5 5 5 5 9 7 6 7 8 12 14 13 13 14 13 10 10 6 4 5 6 6 4 2 3 3 2 2 3 2 4 3 3 2 2 2 5 2 2 1 3 3 7 7 5 5 6 8 6 6 7 9 14 17 17 18 19 19
7 7 7 8 7 7 7 7 6 5 6 7 11 11 10 10 11 8 6 6 5 5 5 5 4 4 4 5 6 5 4 5 5 7 7 8 7 9 9 9 8 9 10 11 11 10 6 4 5 4 1 2 1 2 1 4 5 5 6 4 3 4 4 4 2 3 2 2 2 5 5 5 4 4 7 6 5 7 8 12 15 16 17 18 19
8 8 9 8 7 7 6 6 6 6 5 9 11 12 11 10 10 7 6 5 5 5 4 3 4 4 4 5 6 6 5 5 4 5 8 8 9 8 9 8 8 7 7 8 7 5 5 5 5 5 2 1 1 1 1 2 2 1 1 5 5 6 6 3 3 2 2 3 0 1 4 2 3 5 5 4 5 7 6 10 13 14 15 17 18
6 5 5 6 7 7 6 7 6 6 5 8 11 12 11 10 9 5 6 6 6 5 4 3 3 2 3 5 6 6 5 6 6 8 7 7 9 9 9 7 7 7 6 4 5 5 4 4 3 3 1 1 2 2 2 3 2 4 6 5 4 4 5 4 3 2 3 2 2 2 4 3 2 4 4 4 5 7 6 6 10 13 13 15 17
8 7 8 7 7 7 8 7 7 6 6 7 10 12 12 12 8 5 5 5 5 5 5 3 3 3 3 3 5 6 5 5 6 8 8 7 8 8 7 7 5 5 4 3 4 5 5 4 4 4 4 5 4 3 6 6 5 6 6 6 4 3 5 5 2 2 2 2 3 2 4 5 1 1 5 5 6 6 6 6 6 10 13 13 15
9 8 7 6 6 7 8 9 8 8 7 7 11 12 13 14 9 8 6 6 6 5 4 2 2 3 4 6 4 5 6 5 7 8 8 8 8 6 6 7 6 5 2 2 2 3 4 5 7 8 9 8 7 7 7 8 7 1 0 5 5 3 4 4 4 2 1 1 1 1 2 4 1 1 3 1 4 5 6 6 6 7 9 10 13
7 6 6 7 6 5 6 7 10 9 7 7 11 13 14 15 10 6 7 6 6 5 5 4 2 3 3 4 7 5 5 7 8 7 7 5 8 6 6 6 5 5 4 2 2 4 4 5 5 5 7 6 5 4 6 7 5 3 0 2 4 4 4 4 5 4 4 1 0 1 2 2 1 1 0 1 4 4 6 6 6 6 7 6 8
Wind_Direction
36 23 11 38 20 15 16 12 351 316 257 239 217 204 204 203 235 251 248 262 261 270 240 247 246 228 222 245 255 268 287 285 244 236 231 213 229 233 233 227 222 220 225 250 258 250 242 243 243 243 250 258 260 253 256 269 277 250 223 229 229 224 232 234 223 228 233 240 244 247 250 255 260 264 267 270 274 277 277 278 277 277 277 278 278
42 30 47 30 21 15 21 9 8 348 321 273 223 225 211 198 209 237 258 271 284 289 295 298 288 244 224 242 228 241 228 257 260 241 236 221 227 234 238 238 225 3 330 277 275 275 267 252 252 251 254 256 258 265 261 262 258 269 256 222 218 216 226 228 225 228 234 240 244 247 251 256 260 262 263 267 271 270 270 270 271 272 273 274 274
46 38 44 33 21 21 15 353 8 357 339 277 213 218 249 244 236 239 255 259 261 271 286 273 274 272 239 246 254 227 216 225 245 249 212 212 241 253 276 332 269 166 206 224 265 273 268 260 249 252 255 254 255 256 260 264 270 274 276 224 215 217 215 220 224 229 233 239 247 250 251 255 257 259 259 262 264 263 264 266 267 270 272 273 273
55 42 51 34 25 24 10 16 355 338 343 312 260 195 189 228 234 249 255 255 270 259 229 229 256 262 257 256 271 269 256 231 227 187 162 163 189 294 39 115 272 167 195 214 232 251 264 261 259 257 259 260 261 263 266 270 273 274 276 271 241 221 219 217 223 228 232 237 243 248 247 250 253 255 256 256 258 260 261 264 266 270 273 273 273
29 31 28 30 26 21 14 12 350 336 332 333 311 13 52 351 29 11 322 315 312 311 307 237 265 277 298 285 255 245 233 219 203 131 138 161 147 115 130 145 149 180 201 210 223 246 256 261 263 265 266 272 276 278 274 272 271 276 279 277 271 251 226 225 226 225 227 229 235 238 239 244 250 253 255 256 257 259 262 265 267 270 275 276 275
76 57 37 35 26 25 10 1 351 345 340 2 18 349 21 28 9 22 8 8 344 339 360 333 300 308 305 312 304 274 224 197 171 156 177 138 147 154 156 161 164 187 203 214 220 229 241 247 250 256 266 270 275 279 280 283 286 286 283 280 283 284 281 256 237 222 222 226 235 236 242 250 253 255 258 259 261 264 267 269 272 273 275 278 278
35 89 65 57 44 21 14 350 337 350 3 7 31 31 42 47 30 46 26 19 0 344 356 331 335 340 347 339 330 326 337 267 152 155 153 152 166 167 163 176 157 167 192 203 225 227 234 239 244 255 265 275 282 285 289 290 291 289 289 292 293 289 274 266 265 263 253 247 237 251 256 277 282 283 280 276 278 276 275 276 278 282 282 282 285
46 42 77 62 60 39 360 345 353 359 12 8 26 31 18 51 31 98 93 36 18 355 7 356 354 354 338 346 336 341 338 344 77 143 165 164 184 172 172 177 176 171 197 204 210 239 245 252 261 270 282 293 309 318 321 318 310 307 306 304 301 293 283 269 252 237 238 243 270 276 264 263 275 285 283 284 283 289 291 298 295 296 304 301 307
46 49 63 40 30 26 5 358 349 357 13 24 34 11 24 60 40 32 95 111 64 8 0 15 11 10 8 5 4 359 360 351 345 178 166 176 192 157 157 179 192 213 197 177 71 10 5 22 31 37 37 30 24 16 8 359 348 334 322 312 305 299 292 276 259 248 228 225 223 238 251 269 276 273 280 281 278 296 304 300 302 304 285 277 266
42 50 66 61 44 30 8 12 6 14 7 11 13 354 35 53 53 18 69 96 62 39 359 4 35 31 22 17 7 13 18 23 23 29 359 39 81 119 159 169 138 54 46 46 49 56 55 48 47 46 42 40 35 28 22 15 2 347 332 320 311 302 297 294 273 241 245 194 222 236 256 269 275 282 286 298 307 300 291 300 295 284 295 303 301
39 35 49 51 47 35 33 12 18 19 28 21 10 356 7 5 53 24 26 67 94 61 32 346 66 61 48 25 24 28 27 32 34 34 30 31 49 45 48 52 61 56 60 57 56 59 61 60 58 49 39 44 43 37 30 28 15 7 351 338 328 320 313 304 287 242 229 189 220 225 258 271 277 286 294 303 305 309 311 307 313 321 320 323 327
43 42 43 42 41 33 36 28 27 31 30 27 8 6 358 354 360 8 5 13 39 43 38 62 70 60 54 45 42 38 44 43 45 39 36 33 31 40 50 53 60 63 65 65 66 67 65 62 55 48 43 35 35 33 23 16 12 21 21 15 8 359 355 346 340 204 164 183 231 266 285 277 289 301 309 304 297 313 326 333 345 358 18 22 16
40 47 43 38 43 34 33 29 28 40 41 26 357 1 12 10 343 5 35 31 355 5 34 69 113 65 40 56 50 44 55 48 51 44 38 37 40 48 53 59 61 65 64 62 59 58 55 53 48 46 41 35 29 22 17 10 13 17 25 26 27 34 37 47 60 91 122 144 265 319 324 338 331 326 315 328 344 18 35 38 36 31 27 18 10
26 32 34 32 25 23 28 19 21 20 34 21 29 25 15 20 4 0 36 64 9 354 340 29 29 138 118 18 31 26 58 51 49 42 42 46 52 56 56 59 63 62 57 55 51 50 53 47 43 41 33 31 29 20 16 17 21 19 24 21 23 40 53 61 75 89 97 80 56 39 21 15 13 7 28 67 63 56 48 43 39 34 27 19 12
30 36 43 33 31 27 15 10 22 22 20 19 15 23 19 22 25 25 334 349 333 339 16 29 139 98 93 90 348 30 346 27 35 39 42 52 56 56 57 54 52 49 50 52 47 39 43 39 37 33 25 19 25 23 21 15 20 16 33 38 36 39 46 54 57 60 63 57 47 57 53 48 66 72 65 60 61 57 51 42 38 32 28 24 18
39 46 51 47 44 35 17 21 13 23 31 26 18 16 16 16 17 22 36 340 355 316 26 30 95 153 256 132 190 126 41 13 14 21 35 52 56 56 51 52 51 51 44 46 40 38 35 36 39 34 28 17 14 16 15 16 24 23 34 45 46 47 50 54 55 56 55 55 53 65 74 76 66 61 61 57 56 56 52 47 39 33 26 21 16
41 40 44 42 38 32 30 21 24 16 24 27 22 9 11 21 20 28 36 76 329 332 310 41 39 27 139 120 77 34 206 163 101 41 28 49 58 65 66 66 63 55 53 51 44 40 35 34 30 30 31 23 16 11 14 11 32 30 40 51 55 57 60 61 62 62 63 60 59 66 78 75 68 62 55 52 51 49 47 43 37 30 23 17 13
31 31 35 42 34 30 34 34 27 19 29 27 21 16 13 10 17 18 18 345 248 6 324 339 32 51 63 5 213 178 175 192 59 94 55 62 65 82 79 71 64 67 61 58 50 46 41 40 37 43 29 16 9 15 11 15 34 42 45 56 56 56 57 57 57 59 56 58 58 57 58 64 64 61 57 50 46 44 42 39 35 30 21 17 17
27 25 24 30 36 26 29 32 28 25 29 35 31 19 351 5 13 29 14 359 35 25 5 321 333 60 44 43 49 5 154 136 148 124 127 83 54 64 85 74 66 63 58 51 48 47 40 45 40 41 34 12 12 12 9 1 24 35 57 58 56 55 55 54 50 49 51 51 52 49 50 52 53 54 51 48 41 38 38 35 33 26 20 17 15
38 25 21 21 29 22 21 23 23 12 26 28 24 7 13 13 28 32 27 37 36 48 360 21 51 288 10 39 25 39 42 358 158 167 142 141 123 90 76 80 70 59 64 61 51 45 43 35 42 39 30 23 14 14 12 17 20 15 48 59 58 57 57 57 53 48 46 44 44 46 46 46 46 45 44 42 39 36 34 32 29 24 19 18 15
50 41 25 24 30 26 23 26 21 7 29 20 20 23 28 18 14 16 12 19 27 35 44 17 20 8 355 353 17 29 22 31 16 355 136 151 141 121 106 85 77 63 62 70 69 57 50 39 45 41 35 26 18 14 18 21 14 8 26 55 56 55 55 54 52 49 48 46 43 43 43 42 41 40 39 38 36 34 32 28 25 22 18 15 13
20 33 25 17 18 27 32 30 15 8 42 33 30 30 22 29 27 27 22 27 7 16 44 19 35 41 57 221 73 27 14 45 37 15 22 12 141 144 139 123 87 59 55 58 71 64 54 42 41 36 34 27 22 21 17 21 15 11 27 51 54 53 53 53 51 51 50 49 48 46 44 43 42 39 37 37 36 35 33 30 26 23 19 14 12
2 13 19 6 9 29 25 4 19 25 33 29 30 37 31 43 33 41 37 32 5 10 23 34 34 42 45 53 68 109 180 197 182 133 134 162 140 124 112 100 116 108 67 61 70 69 58 45 39 37 31 32 26 27 24 27 33 31 36 41 55 55 56 56 55 54 53 52 51 50 48 47 44 42 40 39 37 34 31 30 29 26 22 17 13
17 19 7 354 12 9 11 17 23 19 19 358 26 27 26 46 45 39 28 25 20 26 24 21 13 32 44 21 52 84 74 65 210 161 139 189 141 134 121 108 81 89 103 81 66 63 54 46 37 37 33 36 33 30 32 30 41 41 41 39 46 57 60 60 59 57 56 54 53 51 50 48 46 44 42 40 37 35 33 30 28 24 23 21 16
3 13 340 343 7 19 9 11 357 17 8 10 30 29 32 46 46 42 30 25 8 14 30 17 11 30 5 7 54 51 45 336 183 160 119 115 135 114 108 3 112 132 112 80 78 66 54 48 41 34 37 38 36 32 35 40 46 48 48 42 41 43 51 54 55 54 52 51 49 48 47 47 47 46 43 41 39 38 34 30 26 24 24 21 20
7 349 301 312 35 54 36 355 351 15 43 39 48 44 44 49 44 42 33 12 16 25 25 5 22 20 356 38 34 29 4 349 4 114 144 158 138 128 117 96 110 118 118 109 92 91 56 49 43 39 37 38 37 37 31 44 43 47 50 47 39 40 43 46 47 48 49 48 47 45 45 45 46 46 46 43 41 39 36 34 31 31 30 27 24
264 293 323 334 23 47 38 36 7 28 34 37 30 44 41 51 43 42 44 21 29 32 25 12 16 7 14 23 26 32 7 356 17 69 124 118 137 147 134 110 81 60 79 74 80 75 104 62 42 40 36 37 34 38 41 42 49 49 49 43 41 40 42 43 44 44 45 46 46 47 46 46 48 48 46 45 44 43 42 40 38 36 34 32 29
277 303 323 30 54 47 39 34 22 40 43 41 38 40 37 50 31 28 37 8 35 35 18 21 18 10 12 355 37 24 5 2 22 32 121 138 144 158 155 166 134 119 101 103 99 87 42 98 58 36 32 36 34 37 47 49 43 49 48 46 42 39 40 42 44 44 43 42 44 46 47 49 50 49 48 49 49 46 44 42 40 39 36 33 30
273 302 340 38 73 75 52 47 37 30 44 39 51 52 53 53 40 31 30 4 44 35 18 28 11 359 22 23 31 22 10 0 20 32 61 138 89 83 63 146 136 138 138 110 72 117 64 358 108 32 29 36 42 33 45 46 48 50 48 49 47 46 42 39 43 45 41 39 39 44 47 49 51 50 49 49 49 46 42 40 38 35 33 32 30
281 322 37 61 67 63 74 64 58 48 41 37 42 51 59 57 47 49 25 18 53 37 24 24 16 6 22 30 19 24 355 7 18 17 30 78 142 118 107 86 74 166 145 139 110 26 83 49 48 114 34 42 47 47 48 51 46 48 49 49 48 50 48 44 39 41 38 32 31 37 45 50 51 51 48 46 46 44 41 39 37 34 31 28 27
18 1 62 73 85 68 81 79 63 59 49 43 45 52 53 56 34 37 20 25 50 45 16 22 16 23 26 33 14 20 359 1 14 21 27 34 105 134 133 130 85 163 128 123 121 44 360 91 69 53 90 68 57 64 56 50 48 50 49 45 49 49 46 46 42 40 37 35 34 34 37 42 44 46 44 43 44 42 40 38 35 33 31 28 27
327 2 97 118 113 99 84 84 74 65 60 47 49 62 64 56 38 37 15 28 51 40 19 22 23 24 34 40 22 13 351 358 20 21 22 22 64 156 142 130 100 100 110 87 91 93 359 98 110 88 77 82 59 70 67 59 49 51 50 46 42 45 40 40 40 40 43 42 39 36 34 34 37 41 43 44 43 43 42 38 36 34 33 31 28
341 85 118 127 115 112 96 74 72 69 68 55 42 65 69 63 41 42 27 32 50 31 26 25 21 26 30 41 25 14 359 27 14 10 24 12 32 83 106 112 99 86 100 100 113 108 77 28 90 111 98 73 67 46 77 66 54 49 49 49 40 41 38 36 38 40 42 41 40 38 35 34 34 37 42 46 44 43 43 39 36 36 35 33 30
94 119 119 114 105 105 100 94 83 79 75 68 52 66 75 69 49 32 31 32 42 30 27 31 8 17 14 42 20 3 8 34 25 28 16 20 46 77 68 96 103 96 75 114 97 124 124 94 98 67 56 11 98 14 86 83 72 59 51 42 38 35 37 29 37 36 33 38 40 39 37 36 36 36 39 43 43 43 43 40 38 36 36 34 31
50 124 127 117 113 108 101 98 97 83 78 72 53 66 67 77 74 49 38 46 41 31 35 22 5 350 33 40 19 358 358 36 33 26 17 37 45 73 72 62 84 73 60 103 127 119 134 126 13 89 55 32 62 101 78 81 72 59 65 42 30 29 31 24 28 31 28 34 39 41 40 38 38 38 39 41 43 44 44 42 40 38 36 34 33
95 69 111 118 114 113 110 102 98 102 90 84 72 62 65 70 74 64 47 51 51 43 44 27 17 18 29 43 15 356 3 51 29 30 28 39 48 67 72 62 72 72 66 69 113 130 138 133 14 78 87 100 72 77 88 69 71 54 48 45 27 34 17 15 18 23 26 30 36 39 39 38 38 39 39 41 43 45 44 43 41 39 36 33 32
115 109 86 111 116 119 124 127 116 111 113 104 93 76 68 67 78 74 63 59 52 54 41 34 39 36 41 52 9 4 22 64 37 41 31 56 49 64 72 67 75 73 66 66 74 113 136 135 118 34 48 79 74 81 72 105 78 68 46 44 26 8 3 6 10 16 10 14 23 30 36 38 38 38 39 39 41 42 43 42 40 38 35 32 29
97 104 129 126 134 126 119 122 118 117 111 103 98 95 83 74 73 70 68 64 61 56 51 47 41 34 46 42 31 31 40 61 62 56 55 73 70 69 75 76 80 81 76 70 77 81 92 85 103 121 33 84 93 61 33 85 104 99 84 60 43 22 11 5 20 16 11 23 25 23 31 36 37 38 36 37 37 38 39 38 38 35 31 30 30
133 121 114 118 108 122 118 114 123 126 116 106 104 98 88 80 76 75 71 68 61 55 56 53 49 45 44 41 41 42 59 58 65 70 84 81 80 76 78 88 85 87 83 80 89 91 96 109 76 68 102 55 84 106 65 64 75 67 105 102 60 16 37 21 9 7 12 28 35 35 36 39 38 35 33 35 33 36 37 39 38 36 35 32 31
145 147 145 133 124 118 129 123 127 129 120 115 109 102 93 91 92 80 79 83 79 67 62 52 43 46 46 41 38 50 67 74 80 59 62 94 95 88 63 90 93 92 89 97 91 102 110 97 94 120 47 119 82 66 75 85 101 74 40 98 112 73 49 44 38 15 10 40 34 30 22 22 28 26 23 29 30 32 33 36 42 43 40 38 35
143 144 140 137 132 120 115 129 132 133 135 138 143 133 119 102 98 95 89 87 90 86 68 58 41 37 32 38 48 46 64 69 69 72 73 62 98 113 90 91 100 98 98 84 101 107 93 103 101 75 102 93 67 125 113 79 125 125 18 85 98 84 89 77 47 42 16 38 55 45 31 14 31 30 28 30 27 31 34 33 40 43 41 39 37
141 140 137 140 145 150 142 134 136 145 147 143 156 148 137 134 120 111 101 87 88 82 82 74 55 43 36 28 44 62 66 66 64 63 69 72 75 78 100 83 106 101 95 105 107 115 117 120 125 134 124 116 125 112 115 130 302 303 111 125 116 127 112 93 71 37 11 18 56 52 34 16 22 43 32 35 25 34 34 38 44 46 43 42 39
153 157 147 147 159 163 157 153 155 164 156 172 149 142 139 131 126 125 115 107 90 88 84 83 81 64 50 51 41 53 54 59 67 67 68 71 71 72 74 78 76 110 129 111 115 135 125 122 128 122 124 130 128 143 121 114 32 129 129 125 122 125 135 117 107 110 21 358 49 61 43 11 17 49 37 33 30 36 39 43 44 45 45 44 42
163 154 160 168 164 163 151 152 160 171 172 170 150 156 149 143 136 130 127 121 110 105 102 99 95 85 74 54 35 27 64 67 62 67 74 74 75 76 74 67 63 62 70 125 144 135 148 136 136 146 135 141 138 161 146 134 124 96 92 110 79 137 129 105 106 96 2 350 77 76 56 18 11 53 47 26 32 43 43 40 43 45 44 44 42
153 168 176 161 171 168 158 161 173 177 175 162 158 161 159 152 142 132 134 127 127 125 122 118 108 99 88 76 60 35 30 62 64 58 69 72 69 69 65 66 66 64 62 68 76 119 142 123 130 144 179 148 143 176 176 155 133 124 139 104 89 85 94 105 109 107 4 343 80 75 61 21 11 50 53 24 32 39 42 38 41 43 43 43 42
172 173 169 175 169 171 173 173 171 170 174 169 164 164 166 161 152 143 136 140 136 140 141 134 123 113 104 106 96 72 44 52 58 74 77 73 73 62 55 51 52 53 57 61 67 75 77 102 118 119 202 170 117 179 146 138 151 156 148 131 143 120 105 96 97 99 7 293 129 120 70 33 10 43 52 31 30 42 43 36 39 40 40 41 40
178 179 177 178 185 178 174 166 160 170 189 170 169 167 169 167 159 140 135 134 139 146 142 127 131 123 115 115 107 106 93 79 77 92 89 92 83 75 68 58 51 49 52 47 50 58 74 74 78 88 131 224 269 256 224 174 175 117 144 136 141 119 112 127 105 77 66 26 301 55 87 40 330 60 48 28 29 46 29 32 22 29 33 37 37
186 175 183 173 176 180 176 166 165 176 185 175 174 172 168 166 163 143 146 147 155 162 161 161 133 117 125 125 122 119 106 97 93 94 100 102 90 84 78 69 62 53 50 55 59 70 82 95 93 94 121 266 281 236 190 157 128 120 111 97 93 113 119 100 79 350 59 10 22 96 111 89 332 67 65 39 38 40 23 28 11 16 19 27 33
176 184 183 183 182 176 173 174 176 185 187 191 185 175 170 165 162 147 150 140 157 169 186 184 158 150 138 139 137 131 123 116 115 107 107 99 93 91 90 83 71 65 51 29 51 63 73 82 81 76 54 39 39 134 142 143 137 138 129 115 131 153 116 115 95 78 53 341 25 25 101 105 9 67 80 46 45 39 26 16 11 14 15 19 29
186 189 179 176 176 181 179 184 184 177 198 186 185 179 172 172 171 163 164 158 162 177 173 157 160 156 169 171 161 148 146 145 133 126 121 112 107 110 106 103 96 93 62 358 19 19 30 65 67 63 46 36 54 95 120 132 142 166 156 148 168 138 113 131 132 123 117 47 36 307 83 115 163 296 88 129 61 42 24 22 11 13 15 28 22
186 176 174 174 173 185 202 193 189 182 185 188 184 181 177 176 175 162 157 152 158 178 171 166 176 145 210 192 183 185 173 162 154 153 139 122 127 131 135 118 125 142 190 177 111 79 54 48 23 37 31 26 46 77 101 100 83 60 35 134 142 153 136 139 129 133 128 140 36 278 123 177 195 81 275 111 65 52 38 25 26 23 25 20 27